STARLINK-11365, 62886

Orbit data source: Space-Track

STARLINK-11365, 62886 is a payload satellite owned by SpaceX/Seattle (US) in LEO that was launched on Tue, 04 Feb 2025 UTC via an FALCON 9 launch vehicle from the Air Force Eastern Test Range (AFETR). Payload-class satellites include a variety of spacecraft equipped with specific instruments for various scientific and technological missions. These include communications satellites like Starlink; space stations such as the ISS; scientific satellites like the Hubble; Earth observation satellites from companies like Planet Labs, Umbra, and HawkEye 360; GPS; miniature CubeSats for education and research; and military/defense satellites.

Loading next visibility...
Identifier
62886, 2025-024H
Orbit
LEO
Country
Flag of USUS
Related business
Manufacturer
SpaceX/Seattle
Mission
Operational Commercial Communications
Bus & Motor
STARLINK V2MD, Unknown motor
Mass
960 kg wet, ~910 kg dry
Launch date (UTC)
2025-02-04 (1 year ago)
Launch vehicle
FALCON 9
Launch site
Air Force Eastern Test Range (AFETR)
Object type
Payload
Rocket body
Debris
Shape & HBR
Box + 2 Pan, 18.1 m
Radar Cross Section
36.964 m², Large (>1 m²)

Expand to show TLE details & history
Last TLE update: 17 hours ago

TLE from 17 hours ago
0 STARLINK-11365
1 62886U 25024H   26129.81634335  .00131351  00000-0  10108-2 0  9992
2 62886  43.0026 172.6974 0001007 276.3978  83.6775 15.70846372 73080
Epoch: 2026-05-09T19:35Z
TLE epoch observation values (Epoch: 2026-05-09T19:35:32.065Z)
Latitude
-0.00002°
Longitude
11.18543°
Altitude
356.174 km
Speed
7.697 km/s
True Right ascension
11h 30m 47s
True Declination
0° 00' 00"
Sunlit
Object was in full shadow at epoch
Visualization orbit readout
Latitude
Unknown
Longitude
Unknown
Altitude
Unknown
Speed
Unknown
Apparent Right ascension
Unknown
Apparent Declination
Unknown
Sunlit
N/A
Visualization observer readout
Local Sidereal Time
20:25:13
Azimuth
Unknown
Elevation
Unknown
Doppler factor
Unknown
Orbital elements
Apogee altitude
359.136 km
Perigee altitude
357.78 km
Semi-major axis
6,736.595 km
Eccentricity
0.0001
Inclination
43.0026°
RAAN
172.6974°
Arg. of periapsis
276.3978°
True anomaly
83.68897°
Mean anomaly
83.6775°
Eccentric anomaly
83.68323°
Mean motion
3.92539 °/min
Orbital period
91.71 mins
BSTAR
0.0010108
Loading maneuver chart data...
Computing Atmospheric mass density...
Loading historical data...
Loading historical data...
Loading historical data...
Loading historical data...
Loading historical data...
Loading historical data...
Loading historical data...

Documentation

Showing up to 5 results
|